KK0COP Weather Reports


time (UTC)temp
C
wind
direction
speed
KPH
gust
KPH
rain 1hr
cm
rain 24hr
cm
rain mn
cm
humidity
%
barometer
mb
20240621040032 15 0.0 0.0 0.00 0.00 0.00 60 1020.6
20240621035515 15 0.0 0.0 0.00 0.00 0.00 60 1020.6
20240621035017 15 0.0 0.0 0.00 0.00 0.00 62 1020.6
20240621034515 15 0.0 0.0 0.00 0.00 0.00 62 1020.7
20240621034015 15 0.0 0.0 0.00 0.00 0.00 62 1020.9
20240621033516 15 0.0 0.0 0.00 0.00 0.00 61 1021.1
20240621033015 15 0.0 0.0 0.00 0.00 0.00 60 1021.0
20240621032518 15 0.0 0.0 0.00 0.00 0.00 59 1021.1
20240621032016 16 0.0 0.0 0.00 0.00 0.00 58 1020.9
20240621031518 16 0 0.0 0.0 0.00 0.00 0.00 58 1021.0
20240621031016 16 0 0.0 0.0 0.00 0.00 0.00 58 1020.9
20240621030516 16 0 0.0 0.0 0.00 0.00 0.00 58 1020.8
20240621030016 17 0.0 0.0 0.00 0.00 0.00 58 1020.7
20240621025516 17 0.0 0.0 0.00 0.03 0.00 58 1020.3
20240621025016 17 0 0.0 0.0 0.00 0.03 0.00 58 1019.9
20240621024519 17 0 0.0 0.0 0.00 0.03 0.00 58 1019.9
20240621024017 17 0 0.0 1.6 0.00 0.03 0.00 57 1019.8
20240621023516 17 0 0.0 4.8 0.00 0.03 0.00 57 1019.6
20240621023020 17 0 0.0 9.7 0.00 0.03 0.00 56 1019.3
20240621022516 18 0 1.6 14.5 0.00 0.03 0.00 56 1019.2
20240621022016 18 360 6.4 14.5 0.00 0.03 0.00 56 1019.0
20240621021518 18 360 4.8 14.5 0.00 0.03 0.00 55 1018.9
20240621021019 18 360 1.6 14.5 0.00 0.03 0.00 55 1018.8
20240621020515 18 360 4.8 9.7 0.00 0.03 0.00 53 1018.9
20240621020021 18 360 0.0 4.8 0.00 0.03 0.00 52 1018.8
20240621015517 19 0 0.0 0.0 0.00 0.13 0.00 52 1018.7
20240621015016 19 0 0.0 0.0 0.00 0.13 0.00 51 1018.8
20240621014520 19 0 0.0 0.0 0.00 0.13 0.00 51 1018.8
20240621014016 19 0 0.0 0.0 0.00 0.13 0.00 53 1018.8
20240621013517 20 0 0.0 0.0 0.00 0.13 0.00 54 1018.9
20240621013019 20 0 0.0 0.0 0.00 0.13 0.00 54 1018.9
20240621012516 20 0 0.0 0.0 0.00 0.13 0.00 52 1018.8
20240621012017 20 0 0.0 0.0 0.00 0.13 0.00 51 1018.9
20240621011524 20 0 0.0 0.0 0.00 0.13 0.00 51 1019.0
20240621011016 20 0 0.0 0.0 0.00 0.13 0.00 50 1019.3
20240621010519 20 0 0.0 0.0 0.00 0.13 0.00 48 1019.4
20240621010018 20 0 0.0 0.0 0.00 0.13 0.00 46 1019.3
20240621005516 20 0 0.0 0.0 0.00 0.13 0.00 47 1019.3
20240621005015 20 0 0.0 0.0 0.00 0.13 0.00 47 1019.3
20240621004526 21 0 0.0 0.0 0.00 0.13 0.00 49 1019.3
20240621004015 21 0 0.0 0.0 0.00 0.13 0.00 46 1019.3
20240621003515 21 0.0 0.0 0.00 0.13 0.00 49 1019.3
20240621003018 21 0.0 0.0 0.00 0.13 0.00 48 1019.3
20240621002521 21 0 0.0 0.0 0.00 0.13 0.00 48 1019.1
20240621002017 22 0 0.0 0.0 0.00 0.13 0.00 47 1018.7
20240621001527 22 0 0.0 8.0 0.00 0.13 0.00 47 1018.6
20240621001022 22 0 0.0 9.7 0.00 0.13 0.00 46 1018.4
20240621000516 22 360 4.8 12.9 0.00 0.13 0.00 47 1018.3
20240621000024 23 360 3.2 12.9 0.00 0.13 0.00 46 1018.3
20240620235516 23 360 3.2 12.9 0.00 0.13 0.00 45 1018.3
20240620235015 23 0 0.0 0.0 0.00 0.13 0.00 43 1018.3
20240620234519 24 0 0.0 6.4 0.00 0.13 0.00 40 1018.2
20240620234016 24 0 0.0 6.4 0.00 0.13 0.00 35 1018.2
20240620233516 25 360 0.0 6.4 0.00 0.13 0.00 36 1018.1
20240620233023 25 360 1.6 6.4 0.00 0.13 0.00 36 1017.7
20240620232516 25 360 0.0 3.2 0.00 0.13 0.00 35 1017.5
20240620232016 25 0.0 0.0 0.00 0.13 0.00 34 1017.3
20240620231520 25 0.0 0.0 0.00 0.13 0.00 32 1017.1
20240620231015 25 0.0 0.0 0.00 0.13 0.00 34 1017.2
20240620230520 24 0 0.0 0.0 0.00 0.13 0.00 34 1017.1
20240620230021 24 0 0.0 0.0 0.00 0.13 0.00 34 1017.1
20240620225515 24 0 0.0 0.0 0.00 0.13 0.00 34 1017.0
20240620225019 24 0 0.0 0.0 0.00 0.13 0.00 35 1017.3
20240620224518 24 0 0.0 0.0 0.00 0.13 0.00 35 1017.7
20240620224016 24 0 0.0 0.0 0.00 0.13 0.00 36 1018.1
20240620223518 24 0 0.0 38.6 0.00 0.13 0.00 35 1018.4
20240620223019 25 0 0.0 0.0 0.00 0.13 0.00 33 1018.4
20240620222517 26 360 1.6 38.6 0.00 0.13 0.00 33 1018.3
20240620222016 26 0 0.0 12.9 0.00 0.13 0.00 34 1018.1
20240620221522 26 360 3.2 6.4 0.00 0.13 0.00 34 1017.9
20240620221016 26 0.0 0.0 0.00 0.13 0.00 35 1018.0
20240620220515 26 0.0 0.0 0.00 0.13 0.00 35 1018.1
20240620220020 26 0 0.0 0.0 0.00 0.13 0.00 36 1017.9
20240620215516 26 0 0.0 0.0 0.00 0.13 0.00 35 1018.1
20240620215015 26 0.0 0.0 0.00 0.13 0.00 36 1018.1
20240620214516 26 0.0 0.0 0.00 0.13 0.00 35 1018.0
20240620214016 25 0.0 0.0 0.00 0.13 0.00 34 1017.9
20240620213515 25 0 0.0 20.9 0.00 0.13 0.00 34 1017.7
20240620213026 25 0 0.0 20.9 0.00 0.13 0.00 35 1017.6
20240620212518 24 360 9.7 20.9 0.00 0.13 0.00 29 1017.3
20240620212015 23 0 0.0 19.3 0.00 0.13 0.00 30 1017.3
20240620211518 22 0 0.0 0.0 0.00 0.13 0.00 34 1018.0
20240620211015 23 0 0.0 51.5 0.00 0.13 0.00 34 1018.4
20240620210518 23 0 0.0 40.2 0.00 0.13 0.00 31 1018.6
20240620210018 23 360 20.9 40.2 0.00 0.13 0.00 31 1018.8
20240620205515 24 360 12.9 27.4 0.00 0.13 0.00 34 1018.5
20240620205016 24 360 8.0 16.1 0.00 0.13 0.00 43 1018.3
20240620204520 24 360 6.4 14.5 0.00 0.13 0.00 43 1018.0
20240620204016 23 360 1.6 9.7 0.00 0.13 0.00 45 1018.0
20240620203515 23 360 3.2 17.7 0.00 0.13 0.00 46 1018.1
20240620203019 24 360 3.2 17.7 0.00 0.13 0.00 49 1018.2
20240620202516 24 360 4.8 17.7 0.00 0.13 0.00 50 1018.2
20240620202015 25 360 6.4 14.5 0.00 0.13 0.00 49 1018.1
20240620201519 25 360 4.8 9.7 0.00 0.13 0.00 46 1018.1
20240620201017 25 360 3.2 12.9 0.00 0.13 0.00 46 1017.9
20240620200516 25 360 4.8 12.9 0.00 0.13 0.00 47 1017.9
20240620200019 25 360 4.8 14.5 0.00 0.13 0.00 46 1017.9
20240620195520 25 360 4.8 16.1 0.00 0.13 0.00 46 1018.1
20240620195016 25 360 4.8 16.1 0.00 0.13 0.00 46 1018.2
20240620194523 26 360 4.8 16.1 0.00 0.13 0.00 45 1018.2
20240620194018 26 360 3.2 12.9 0.00 0.13 0.00 42 1018.3
20240620193517 26 360 3.2 12.9 0.00 0.13 0.00 41 1018.3
20240620193028 26 360 0.0 16.1 0.00 0.13 0.00 41 1018.2
20240620192516 26 0 0.0 17.7 0.00 0.13 0.00 42 1018.4
20240620192020 27 360 6.4 17.7 0.00 0.13 0.00 42 1018.2
20240620191521 27 360 3.2 12.9 0.00 0.13 0.00 40 1018.5
20240620191019 27 0 1.6 14.5 0.00 0.13 0.00 33 1018.6
20240620190516 27 0 1.6 14.5 0.00 0.13 0.00 27 1018.7
20240620190019 28 360 1.6 9.7 0.00 0.13 0.00 28 1018.6
20240620185515 28 360 3.2 14.5 0.00 0.13 0.00 27 1018.7
20240620185019 28 360 1.6 14.5 0.00 0.13 0.00 27 1018.7
20240620184519 28 360 3.2 14.5 0.00 0.13 0.00 29 1018.8
20240620184015 28 360 0.0 8.0 0.00 0.13 0.00 30 1019.1
20240620183515 28 0 0.0 4.8 0.00 0.13 0.00 28 1019.2
20240620183016 28 0 0.0 0.0 0.00 0.13 0.00 28 1019.3
20240620182517 28 0 0.0 20.9 0.00 0.13 0.00 31 1019.3
20240620182015 27 0 0.0 20.9 0.00 0.13 0.00 32 1019.5
20240620181529 27 360 8.0 20.9 0.00 0.13 0.00 31 1019.4
20240620181015 27 360 8.0 20.9 0.00 0.13 0.00 30 1019.4
20240620180516 27 360 11.3 24.1 0.00 0.13 0.00 32 1019.5
20240620180024 27 360 9.7 24.1 0.00 0.13 0.00 31 1019.5
20240620175519 26 360 6.4 17.7 0.00 0.13 0.00 33 1019.5
20240620175017 26 360 0.0 16.1 0.00 0.13 0.00 33 1019.5
20240620174518 26 360 1.6 16.1 0.00 0.13 0.00 31 1019.5
20240620174016 26 360 3.2 20.9 0.00 0.13 0.00 32 1019.7
20240620173516 26 360 3.2 27.4 0.00 0.13 0.00 33 1019.6
20240620173018 26 360 12.9 27.4 0.00 0.13 0.00 32 1019.6
20240620172515 26 360 16.1 25.7 0.00 0.13 0.00 33 1019.6
20240620172015 26 0 0.0 24.1 0.00 0.13 0.00 36 1019.6
20240620171516 26 360 12.9 24.1 0.00 0.13 0.00 35 1019.6
20240620171017 25 360 11.3 27.4 0.00 0.13 0.00 36 1019.7
20240620170515 25 360 14.5 27.4 0.00 0.13 0.00 37 1019.7
20240620170031 25 360 9.7 20.9 0.00 0.13 0.00 39 1019.7
20240620165518 25 360 8.0 24.1 0.00 0.13 0.00 39 1019.8
20240620165015 25 360 12.9 24.1 0.00 0.13 0.00 38 1019.7
20240620164523 25 360 9.7 24.1 0.00 0.13 0.00 38 1019.8
20240620164016 25 360 9.7 24.1 0.00 0.13 0.00 39 1019.9
20240620163515 25 360 9.7 32.2 0.00 0.13 0.00 39 1019.9
20240620163023 25 360 9.7 32.2 0.00 0.13 0.00 39 1020.1
20240620162519 25 360 12.9 24.1 0.00 0.13 0.00 40 1020.1
20240620162016 25 360 11.3 20.9 0.00 0.13 0.00 39 1020.0
20240620161518 25 360 8.0 24.1 0.00 0.13 0.00 39 1020.1
20240620161016 25 360 6.4 24.1 0.00 0.13 0.00 44 1020.1
20240620160516 24 360 8.0 25.7 0.00 0.13 0.00 42 1020.0
20240620160026 24 360 12.9 25.7 0.00 0.13 0.00 44 1019.9
20240620155516 24 360 9.7 19.3 0.00 0.13 0.00 44 1019.9
20240620155016 23 360 8.0 24.1 0.00 0.13 0.00 44 1019.9
20240620154536 24 360 9.7 24.1 0.00 0.13 0.00 43 1019.9
20240620154015 23 360 8.0 19.3 0.00 0.13 0.00 44 1019.9
20240620153518 23 360 6.4 19.3 0.00 0.13 0.00 46 1019.9
20240620153020 23 360 6.4 32.2 0.00 0.13 0.00 46 1019.8
20240620152517 23 360 9.7 32.2 0.00 0.13 0.00 46 1019.9
20240620152015 23 360 8.0 30.6 0.00 0.13 0.00 46 1019.9
20240620151523 23 360 8.0 20.9 0.00 0.13 0.00 46 1020.0
20240620151015 23 360 9.7 20.9 0.00 0.13 0.00 46 1019.9
20240620150517 22 360 6.4 20.9 0.00 0.13 0.00 45 1020.0
20240620150019 22 360 6.4 20.9 0.00 0.13 0.00 46 1020.0
20240620145518 22 360 8.0 24.1 0.00 0.13 0.00 49 1020.0
20240620145016 22 360 6.4 24.1 0.00 0.13 0.00 49 1020.1
20240620144517 22 360 4.8 9.7 0.00 0.13 0.00 48 1019.9
20240620144020 22 360 3.2 20.9 0.00 0.13 0.00 51 1019.9
20240620143521 21 360 4.8 20.9 0.00 0.13 0.00 50 1019.9
20240620143024 21 0 0.0 0.0 0.00 0.13 0.00 51 1019.9
20240620142517 21 0 0.0 4.8 0.00 0.13 0.00 54 1019.9
20240620142015 20 0 0.0 4.8 0.00 0.13 0.00 54 1019.8
20240620141518 20 0 0.0 0.0 0.00 0.13 0.00 54 1019.7
20240620141016 20 0 0.0 1.6 0.00 0.13 0.00 57 1019.6
20240620140516 19 0 0.0 1.6 0.00 0.13 0.00 57 1019.5
20240620140018 18 0 0.0 3.2 0.00 0.13 0.00 59 1019.4
20240620135521 18 0 0.0 3.2 0.00 0.13 0.00 60 1019.3
20240620135019 17 0 0.0 0.0 0.00 0.13 0.00 61 1019.2
20240620134516 17 0 0.0 4.8 0.00 0.13 0.00 64 1019.3
20240620134015 16 0 0.0 4.8 0.00 0.13 0.00 68 1019.3
20240620133516 16 0 0.0 4.8 0.00 0.13 0.00 70 1019.2
20240620133021 15 0 0.0 6.4 0.00 0.13 0.00 73 1019.1
20240620132516 14 0 1.6 6.4 0.00 0.13 0.00 74 1019.1
20240620132016 13 0 0.0 0.0 0.00 0.13 0.00 80 1018.9
20240620131529 12 0 0.0 0.0 0.00 0.13 0.00 81 1018.9
20240620131016 12 0 0.0 3.2 0.00 0.13 0.00 81 1019.1
20240620130519 11 0 0.0 4.8 0.00 0.13 0.00 84 1018.9
20240620130019 11 0 0.0 4.8 0.00 0.13 0.00 87 1019.1
20240620125516 10 360 0.0 4.8 0.00 0.13 0.00 87 1019.1
20240620125016 10 360 0.0 1.6 0.00 0.13 0.00 89 1019.2
20240620124519 9 0 0.0 0.0 0.00 0.13 0.00 89 1019.2
20240620124016 9 0.0 0.0 0.00 0.13 0.00 89 1019.1
20240620123515 8 0.0 0.0 0.00 0.13 0.00 89 1019.1
20240620123035 8 0 0.0 0.0 0.00 0.13 0.00 90 1018.9
20240620122516 8 0 0.0 0.0 0.00 0.13 0.00 90 1018.8
20240620122015 8 0 0.0 0.0 0.00 0.13 0.00 91 1018.8
20240620121518 8 0 0.0 0.0 0.00 0.13 0.00 91 1018.8
20240620121015 8 0 0.0 0.0 0.00 0.13 0.00 91 1018.8
20240620120516 8 0 0.0 0.0 0.00 0.13 0.00 91 1018.7
20240620120021 8 0.0 0.0 0.00 0.13 0.00 92 1018.7
20240620115516 8 0.0 0.0 0.00 0.13 0.00 92 1018.6
20240620115016 8 0.0 0.0 0.00 0.13 0.00 91 1018.6
20240620114524 8 0.0 0.0 0.00 0.13 0.00 92 1018.6
20240620114016 8 0 0.0 0.0 0.00 0.13 0.00 92 1018.5
20240620113515 8 0 0.0 0.0 0.00 0.13 0.00 91 1018.7
20240620113018 8 0 0.0 0.0 0.00 0.13 0.00 91 1018.7
20240620112519 8 0 0.0 0.0 0.00 0.13 0.00 90 1018.7
20240620112016 8 0 0.0 0.0 0.00 0.13 0.00 90 1018.8
20240620111518 9 0.0 0.0 0.00 0.13 0.00 89 1018.6
20240620111016 9 0 0.0 0.0 0.00 0.13 0.00 89 1018.7
20240620110519 9 0 0.0 0.0 0.00 0.13 0.00 88 1018.5
20240620110023 10 0 0.0 0.0 0.00 0.13 0.00 88 1018.2
20240620105516 10 0 0.0 0.0 0.00 0.13 0.00 88 1018.1
20240620105016 9 0 0.0 0.0 0.00 0.13 0.00 90 1018.2
20240620104530 9 0 0.0 0.0 0.00 0.13 0.00 91 1018.3
20240620104015 9 0 0.0 0.0 0.00 0.13 0.00 92 1018.5
20240620103517 9 0 0.0 0.0 0.00 0.13 0.00 92 1018.4
20240620103018 9 0 0.0 0.0 0.00 0.13 0.00 92 1018.4
20240620102520 9 0 0.0 0.0 0.00 0.13 0.00 92 1018.4
20240620102016 9 0 0.0 0.0 0.00 0.13 0.00 92 1018.5
20240620101523 9 0 0.0 0.0 0.00 0.13 0.00 92 1018.4
20240620101016 9 0 0.0 0.0 0.00 0.13 0.00 92 1018.5
20240620100516 9 0 0.0 0.0 0.00 0.13 0.00 92 1018.6
20240620100014 9 0 0.0 0.0 0.00 0.13 0.00 92 1018.6
20240620095519 9 0 0.0 0.0 0.00 0.13 0.00 92 1018.6
20240620095016 9 0 0.0 0.0 0.00 0.13 0.00 92 1018.6
20240620094535 9 0 0.0 0.0 0.00 0.13 0.00 92 1018.7
20240620094015 10 0 0.0 0.0 0.00 0.13 0.00 92 1018.9
20240620093516 10 0 0.0 0.0 0.00 0.13 0.00 92 1018.9
20240620093030 10 0 0.0 0.0 0.00 0.13 0.00 91 1019.0
20240620092516 10 0 0.0 0.0 0.00 0.13 0.00 91 1018.7
20240620092015 10 0 0.0 0.0 0.00 0.13 0.00 92 1018.7
20240620091525 10 0 0.0 0.0 0.00 0.13 0.00 93 1018.7
20240620091016 10 0 0.0 0.0 0.00 0.13 0.00 94 1018.8
20240620090516 10 0 0.0 0.0 0.00 0.13 0.00 94 1018.9
20240620090015 10 0 0.0 0.0 0.00 0.13 0.00 94 1018.9
20240620085516 10 0 0.0 0.0 0.00 0.13 0.00 94 1018.8
20240620085017 10 0 0.0 0.0 0.00 0.13 0.00 94 1019.1
20240620084534 10 0 0.0 0.0 0.00 0.13 0.00 94 1019.2
20240620084016 10 0 0.0 0.0 0.00 0.13 0.00 94 1019.3
20240620083516 10 0 0.0 0.0 0.00 0.13 0.00 94 1019.3
20240620083019 10 0 0.0 0.0 0.00 0.13 0.00 94 1019.3
20240620082516 10 0 0.0 0.0 0.00 0.13 0.00 94 1019.3
20240620082016 10 0 0.0 0.0 0.00 0.13 0.00 94 1019.5
20240620081523 10 0 0.0 0.0 0.00 0.13 0.00 94 1019.6
20240620081015 10 0 0.0 0.0 0.00 0.13 0.00 94 1019.6
20240620080520 10 0 0.0 0.0 0.00 0.13 0.00 94 1019.7
20240620080017 10 0 0.0 0.0 0.00 0.13 0.00 94 1020.0
20240620075516 10 0 0.0 0.0 0.00 0.13 0.00 94 1019.7
20240620075018 10 0 0.0 0.0 0.00 0.13 0.00 94 1019.9
20240620074521 10 0 0.0 0.0 0.00 0.13 0.00 94 1019.8
20240620074015 10 0 0.0 0.0 0.00 0.13 0.00 94 1019.7
20240620073519 10 0 0.0 0.0 0.00 0.13 0.00 93 1019.8
20240620073018 10 0 0.0 0.0 0.00 0.13 0.00 93 1019.6
20240620072517 10 0 0.0 0.0 0.00 0.13 0.00 93 1019.4
20240620072016 10 0 0.0 0.0 0.00 0.13 0.00 93 1019.5
20240620071540 10 0 0.0 0.0 0.00 0.13 0.00 93 1019.9
20240620071016 10 0 0.0 0.0 0.00 0.13 0.00 93 1019.9
20240620070516 10 0 0.0 0.0 0.00 0.13 0.00 93 1019.9
20240620070022 10 0 0.0 0.0 0.00 0.13 0.00 93 1019.8
20240620065515 10 0 0.0 0.0 0.00 0.13 0.00 93 1019.7
20240620065016 10 0 0.0 0.0 0.00 0.13 0.00 93 1019.9
20240620064519 10 0 0.0 0.0 0.00 0.13 0.00 93 1020.2
20240620064016 10 0 0.0 0.0 0.00 0.13 0.00 93 1019.9
20240620063515 10 0 0.0 0.0 0.00 0.13 0.00 93 1020.1
20240620063018 10 0 0.0 0.0 0.00 0.13 0.00 93 1020.4
20240620062516 10 0 0.0 0.0 0.00 0.13 0.00 93 1020.6
20240620062016 10 0 0.0 0.0 0.00 0.13 0.00 93 1020.3
20240620061519 10 0 0.0 0.0 0.00 0.13 0.00 93 1020.1
20240620061018 10 0 0.0 0.0 0.00 0.13 0.00 93 1020.3
20240620060515 10 0 0.0 0.0 0.00 0.13 0.00 92 1020.4
20240620060017 10 0 0.0 0.0 0.00 0.13 0.00 92 1020.4
20240620055518 10 0 0.0 0.0 0.00 0.13 0.13 93 1020.4
20240620055016 10 0 0.0 0.0 0.00 0.13 0.13 93 1020.2
20240620054541 10 0 0.0 0.0 0.00 0.13 0.13 94 1020.2
20240620054017 10 0 0.0 0.0 0.00 0.13 0.13 94 1020.2
20240620053516 10 0 0.0 0.0 0.00 0.13 0.13 94 1020.3
20240620053021 10 0 0.0 0.0 0.00 0.13 0.13 93 1020.4
20240620052519 10 0 0.0 0.0 0.00 0.13 0.13 93 1020.4
20240620052018 10 0 0.0 0.0 0.00 0.13 0.13 93 1020.4
20240620051518 10 0 0.0 0.0 0.00 0.13 0.13 92 1020.4
20240620051016 10 0 0.0 0.0 0.00 0.13 0.13 92 1020.2
20240620050515 10 0 0.0 0.0 0.00 0.13 0.13 92 1020.4
20240620050018 10 0 0.0 0.0 0.00 0.13 0.13 92 1020.4
20240620045516 10 0 0.0 0.0 0.00 0.13 0.13 92 1020.4
20240620045016 11 0 0.0 0.0 0.00 0.13 0.13 92 1020.2
20240620044516 11 0 0.0 0.0 0.00 0.13 0.13 92 1020.1
20240620044015 11 0 0.0 0.0 0.00 0.13 0.13 92 1020.1
20240620043515 11 0 0.0 0.0 0.00 0.13 0.13 92 1020.3
20240620043030 11 0 0.0 0.0 0.00 0.13 0.13 92 1020.1
20240620042516 11 0 0.0 0.0 0.00 0.13 0.13 92 1020.2
20240620042017 11 0 0.0 0.0 0.00 0.13 0.13 92 1020.3
20240620041518 11 0 0.0 0.0 0.00 0.13 0.13 92 1020.2
20240620041016 11 0 0.0 0.0 0.00 0.13 0.13 92 1020.1
20240620040516 11 0 0.0 0.0 0.00 0.13 0.13 92 1020.1